Flag for Finland Weather past 2 weeks in Ivalo, Finland

Now
19 °F

Passing clouds.


Feels Like: 10 °F
Forecast: 11 / 21 °F
Wind: 7 mph from Southwest

Location: Ivalo

Current Time: Jan 27, 2015 at 9:53:13 PM

Latest Report: Jan 27, 2015 at 9:20 PM


Visibility: N/A

Pressure: 29.24 "Hg

Humidity: 93%

Dew point: 18 °F

Location of IvaloLocation

Historic Weather in Ivalo — Graph

°F

Ivalo temperature yesterday

Maximum temperature yesterday: 30 °F (at 3:20 PM)
Minimum temperature yesterday: 3 °F (at 1:20 AM)
Average temperature yesterday: 21 °F

Past Weeks' High & Low Weather Summary

 TemperatureHumidityPressure
High30 °F (Jan 26, 3:20 PM)100% (Jan 16, 6:50 PM)30.45 "Hg (Jan 16, 6:50 PM)
Low-33 °F (Jan 12, 10:50 PM)66% (Jan 12, 10:50 PM)28.97 "Hg (Jan 16, 6:50 PM)
Average6 °F85%29.71 "Hg
* Reported Jan 12 8:20 PM — Jan 27 8:20 PM, Ivalo, Weather by CustomWeather, © 2014

Note: Actual official high and low records may vary slightly from our data, if they occured in-between our weather recording intervals... More about our weather records

Advertising

Ivalo weather history for previous 24 hours

 ConditionsComfort  
Time TempWeatherWind HumidityBarometerVisibility
8:20 PM
Jan 27
21 °FPassing clouds.8 mph86%29.24 "HgN/A
7:50 PM21 °FPassing clouds.7 mph86%29.24 "HgN/A
7:20 PM21 °FPassing clouds.7 mph86%29.24 "HgN/A
6:50 PM21 °FPassing clouds.7 mph86%29.27 "HgN/A
6:20 PM23 °FPassing clouds.3 mph86%29.27 "HgN/A
5:50 PM23 °FPassing clouds.3 mph86%29.27 "HgN/A
5:20 PM23 °FOvercast.7 mph86%29.27 "HgN/A
4:50 PM23 °FOvercast.8 mph93%29.27 "HgN/A
4:20 PM23 °FOvercast.7 mph93%29.27 "HgN/A
3:50 PM23 °FOvercast.7 mph93%29.27 "HgN/A
3:20 PM23 °FOvercast.7 mph93%29.27 "HgN/A
2:50 PM23 °FOvercast.7 mph93%29.27 "HgN/A
2:20 PM25 °FPartly sunny.13 mph86%29.27 "HgN/A
1:50 PM25 °FPartly sunny.14 mph86%29.30 "HgN/A
1:20 PM25 °FPartly sunny.12 mph86%29.30 "HgN/A
12:50 PM25 °FPartly sunny.14 mph86%29.30 "HgN/A
12:20 PM25 °FPartly sunny.17 mph86%29.30 "HgN/A
11:50 AM25 °FPartly sunny.14 mph93%29.30 "HgN/A
11:20 AM25 °FOvercast.14 mph93%29.30 "HgN/A
10:50 AM25 °FOvercast.17 mph93%29.30 "HgN/A
10:20 AM25 °FOvercast.14 mph93%29.30 "HgN/A
9:50 AM27 °FPassing clouds.16 mph86%29.30 "HgN/A
9:35 AM27 °FPassing clouds.15 mph86%29.30 "HgN/A
8:50 AM27 °FPassing clouds.14 mph86%29.30 "HgN/A
8:20 AM27 °FOvercast.16 mph86%29.33 "HgN/A
7:50 AM27 °FSnow flurries. Passing clouds.16 mph86%29.30 "HgN/A
7:20 AM27 °FOvercast.16 mph86%29.33 "HgN/A
6:50 AM27 °FPassing clouds.15 mph86%29.33 "HgN/A
5:50 AM27 °FSnow flurries. Passing clouds.16 mph86%29.33 "HgN/A
5:20 AM28 °FPassing clouds.16 mph86%29.33 "HgN/A
4:50 AM28 °FPassing clouds.16 mph86%29.33 "HgN/A
4:20 AM28 °FSnow flurries. Overcast.12 mph86%29.36 "HgN/A
3:50 AM28 °FOvercast.13 mph86%29.36 "HgN/A
3:20 AM28 °FOvercast.17 mph86%29.36 "HgN/A
2:50 AM28 °FSnow flurries. Overcast.14 mph86%29.36 "HgN/A
2:20 AM28 °FOvercast.13 mph86%29.36 "HgN/A
1:50 AM28 °FOvercast.12 mph86%29.36 "HgN/A
1:20 AM28 °FOvercast.10 mph86%29.36 "HgN/A
12:50 AM28 °FOvercast.8 mph86%29.36 "HgN/A
12:20 AM28 °FSnow flurries. Overcast.12 mph86%29.39 "HgN/A
11:50 PM
Jan 26
28 °FOvercast.13 mph86%29.39 "HgN/A
11:20 PM28 °FLight snow. Overcast.12 mph93%29.39 "HgN/A
10:50 PM28 °FLight snow. Overcast.14 mph86%29.39 "HgN/A
10:20 PM28 °FLight snow. Overcast.13 mph86%29.42 "Hg6 mi
9:50 PM28 °FOvercast.12 mph86%29.42 "HgN/A
9:20 PM28 °FOvercast.9 mph86%29.42 "HgN/A
Weather by CustomWeather, © 2014

See weather overviewHow to use our weather pages